Temp
1 1 -1 -2 -1 1 3 2 7 12 12 -1 -1 -1 1 0 -1 -0 0 -1 1 2 2 3 3 3 3 3 2 2 1 1 1 2 2 3 5 5 6 5 5 5 4 3
-0 -0 -1 -3 -2 -2 -4 -5 -3 2 1 -4 -3 -2 -1 -2 -2 -2 -2 -2 -2 -0 2 2 1 2 2 2 1 1 1 1 0 0 1 3 4 5 5 5 5 4 3 3
1 -0 1 -1 -6 -5 -7 -8 -6 -6 -7 -6 -5 -5 -4 -4 -4 -4 -4 -4 -4 -2 -0 1 1 1 2 2 2 1 1 1 0 0 1 2 3 4 4 4 4 3 2 1
-0 1 -0 -4 -6 -5 -7 -8 -9 -8 -8 -8 -8 -7 -6 -5 -6 -6 -5 -5 -5 -3 0 -0 2 1 1 1 1 1 0 0 1 1 1 2 2 3 3 3 2 2 1 0
1 -0 -2 -3 -7 -8 -7 -7 -10 -10 -9 -9 -8 -5 -2 -5 -8 -8 -6 -6 -6 -3 -0 0 1 1 1 1 1 1 1 1 1 1 1 2 2 2 2 2 1 0 -0 -0
-1 0 -1 -7 -9 -9 -8 -4 -9 -11 -10 -10 -9 -7 -5 -8 -9 -8 -7 -7 -7 -3 -1 0 0 0 0 0 -0 -0 0 0 -0 -0 0 1 2 2 1 1 0 -1 -1 -2
-3 -2 -6 -10 -8 -9 -4 -6 -11 -12 -12 -11 -11 -10 -11 -11 -10 -9 -8 -8 -6 -5 -3 -1 -0 -0 0 -0 -0 0 0 0 -0 -0 0 1 1 1 0 -1 -2 -3 -2 -2
-5 -4 -3 -9 -8 -9 -11 -12 -12 -12 -12 -12 -12 -12 -11 -11 -10 -9 -9 -8 -6 -5 -4 -3 -1 -1 -1 -1 -1 -1 -1 -1 -1 -1 -0 0 0 -1 -2 -3 -4 -3 -3 -4
-8 -7 -10 -11 -12 -12 -13 -13 -13 -13 -13 -13 -13 -12 -12 -11 -9 -10 -9 -9 -8 -7 -6 -5 -3 -1 -2 -2 -2 -2 -2 -2 -2 -2 -1 -1 -1 -3 -5 -6 -5 -4 -5 -5
-9 -8 -10 -11 -10 -12 -13 -14 -14 -14 -14 -14 -13 -12 -12 -10 -10 -10 -9 -9 -8 -8 -7 -6 -5 -3 -3 -2 -3 -4 -4 -4 -3 -2 -3 -3 -4 -5 -6 -6 -6 -5 -6 -7
-9 -8 -11 -10 -11 -13 -14 -14 -14 -14 -14 -13 -13 -13 -12 -11 -10 -10 -10 -9 -9 -8 -8 -7 -7 -5 -5 -4 -5 -5 -6 -5 -5 -5 -5 -6 -6 -7 -7 -6 -5 -5 -6 -5
-10 -12 -13 -12 -13 -14 -15 -15 -15 -15 -14 -13 -14 -13 -12 -11 -11 -10 -10 -10 -9 -9 -9 -8 -7 -7 -7 -7 -7 -6 -7 -7 -7 -7 -7 -7 -7 -7 -7 -7 -8 -7 -6 -6
-13 -14 -14 -14 -15 -15 -16 -16 -16 -15 -15 -15 -14 -13 -13 -12 -11 -11 -10 -10 -10 -10 -9 -9 -8 -8 -8 -8 -7 -7 -7 -8 -8 -7 -7 -7 -7 -7 -9 -9 -8 -7 -8 -8
-15 -16 -15 -15 -15 -16 -16 -15 -15 -15 -14 -14 -13 -13 -12 -12 -11 -11 -11 -11 -10 -10 -10 -9 -9 -9 -9 -9 -8 -8 -7 -7 -7 -7 -7 -7 -8 -9 -9 -9 -9 -10 -10 -10
-15 -15 -16 -16 -15 -14 -14 -15 -15 -15 -14 -13 -13 -13 -13 -12 -12 -12 -11 -11 -10 -10 -10 -10 -10 -10 -9 -9 -8 -8 -8 -8 -7 -8 -8 -8 -9 -9 -9 -9 -10 -10 -10 -11
-15 -15 -15 -15 -15 -15 -15 -14 -15 -15 -14 -14 -14 -13 -13 -13 -12 -12 -11 -11 -10 -10 -10 -10 -10 -10 -9 -9 -8 -8 -8 -8 -8 -8 -9 -9 -9 -9 -10 -10 -10 -10 -10 -10
-16 -16 -16 -15 -15 -15 -15 -15 -15 -15 -14 -14 -14 -13 -13 -13 -12 -12 -12 -11 -11 -10 -10 -10 -10 -10 -9 -9 -9 -9 -9 -9 -9 -9 -9 -10 -10 -10 -10 -10 -10 -10 -10 -10
-15 -15 -16 -16 -15 -15 -15 -14 -14 -14 -14 -14 -14 -13 -13 -13 -13 -12 -12 -11 -11 -11 -10 -10 -10 -10 -10 -9 -9 -9 -9 -9 -10 -10 -10 -10 -10 -11 -11 -10 -10 -10 -10 -10
-15 -15 -15 -15 -15 -15 -15 -15 -14 -14 -14 -14 -14 -13 -13 -13 -13 -12 -12 -12 -11 -11 -12 -11 -11 -10 -10 -10 -10 -10 -10 -10 -10 -10 -10 -11 -11 -11 -11 -11 -11 -11 -11 -11
-15 -15 -15 -15 -15 -15 -15 -15 -15 -14 -14 -14 -13 -13 -13 -13 -13 -13 -12 -12 -12 -12 -12 -11 -11 -11 -11 -11 -10 -10 -10 -10 -10 -11 -11 -11 -11 -11 -11 -11 -11 -11 -11 -11
-15 -15 -15 -15 -15 -15 -15 -15 -15 -14 -14 -14 -14 -14 -14 -13 -13 -13 -13 -13 -13 -12 -12 -11 -11 -11 -11 -11 -11 -11 -11 -11 -11 -11 -11 -11 -11 -11 -11 -11 -11 -11 -11 -11
-16 -16 -16 -16 -16 -16 -16 -15 -15 -15 -14 -14 -14 -14 -14 -14 -13 -13 -13 -13 -13 -13 -12 -12 -12 -11 -11 -11 -11 -11 -11 -11 -11 -12 -12 -12 -12 -11 -11 -12 -12 -12 -12 -12
-16 -16 -16 -16 -16 -16 -16 -16 -16 -15 -15 -15 -14 -14 -14 -14 -14 -14 -14 -13 -13 -13 -13 -13 -13 -12 -12 -11 -11 -11 -11 -12 -12 -12 -12 -12 -12 -12 -12 -12 -12 -12 -12 -13
-17 -17 -17 -16 -16 -16 -16 -16 -16 -16 -16 -16 -15 -15 -14 -14 -14 -13 -13 -13 -14 -14 -13 -13 -13 -12 -12 -12 -12 -12 -12 -12 -12 -12 -13 -13 -13 -13 -12 -13 -13 -13 -13 -13
-17 -17 -17 -17 -17 -17 -17 -16 -16 -16 -16 -16 -16 -15 -15 -15 -15 -15 -14 -14 -14 -14 -14 -14 -14 -13 -13 -13 -13 -13 -13 -13 -14 -13 -13 -13 -13 -13 -13 -13 -13 -13 -14 -14
-18 -18 -17 -17 -18 -17 -17 -17 -17 -17 -17 -16 -16 -16 -16 -16 -15 -15 -15 -15 -15 -15 -14 -14 -14 -14 -14 -14 -14 -14 -14 -14 -14 -14 -14 -14 -14 -14 -14 -14 -14 -14 -14 -14
-19 -18 -18 -18 -18 -18 -18 -18 -17 -17 -17 -17 -17 -17 -17 -16 -16 -16 -16 -16 -15 -15 -15 -15 -15 -15 -15 -15 -15 -15 -15 -15 -14 -14 -14 -14 -14 -14 -14 -15 -14 -14 -15 -15
Height
1356 1360 1369 1374 1369 1358 1349 1353 1331 1313 1316 1371 1374 1370 1364 1360 1355 1347 1341 1336 1332 1333 1335 1335 1336 1337 1340 1343 1347 1353 1360 1366 1372 1379 1385 1391 1400 1412 1422 1431 1440 1447 1453 1459
1361 1358 1368 1376 1372 1369 1377 1380 1371 1357 1361 1383 1378 1374 1370 1362 1358 1354 1350 1343 1338 1335 1334 1335 1336 1337 1337 1340 1344 1350 1356 1363 1370 1377 1382 1388 1397 1406 1415 1425 1433 1442 1449 1454
1360 1362 1354 1364 1399 1394 1403 1405 1401 1395 1400 1393 1382 1380 1375 1368 1363 1354 1347 1346 1343 1338 1336 1335 1336 1337 1339 1340 1343 1349 1353 1359 1365 1372 1378 1386 1394 1402 1411 1419 1428 1436 1444 1450
1364 1356 1371 1403 1407 1402 1404 1410 1415 1410 1405 1400 1391 1383 1376 1377 1370 1362 1352 1344 1339 1335 1333 1335 1336 1338 1339 1341 1343 1346 1351 1356 1361 1368 1376 1384 1392 1400 1407 1416 1425 1433 1440 1445
1359 1366 1389 1396 1411 1417 1409 1410 1415 1413 1408 1400 1386 1365 1364 1370 1372 1366 1359 1353 1344 1338 1333 1332 1334 1337 1339 1340 1342 1345 1347 1353 1358 1365 1372 1379 1387 1396 1406 1415 1423 1430 1437 1441
1372 1364 1374 1415 1415 1410 1408 1395 1412 1415 1409 1402 1393 1379 1376 1376 1370 1363 1361 1355 1347 1338 1333 1333 1334 1336 1338 1338 1340 1343 1346 1349 1356 1363 1371 1378 1386 1396 1405 1414 1420 1427 1433 1438
1392 1384 1407 1425 1413 1406 1397 1407 1413 1414 1409 1401 1395 1394 1380 1373 1368 1364 1355 1347 1341 1337 1334 1332 1331 1332 1335 1338 1339 1342 1346 1351 1356 1363 1371 1379 1387 1395 1403 1411 1419 1425 1431 1434
1408 1399 1400 1425 1418 1419 1432 1425 1417 1410 1405 1400 1395 1387 1380 1371 1364 1358 1352 1344 1338 1332 1328 1327 1326 1330 1334 1337 1338 1342 1345 1350 1353 1360 1368 1377 1386 1394 1402 1409 1416 1422 1427 1431
1432 1427 1435 1433 1433 1434 1430 1424 1417 1411 1403 1399 1392 1384 1378 1369 1361 1356 1350 1344 1339 1334 1329 1327 1326 1329 1333 1336 1339 1342 1345 1348 1353 1360 1369 1377 1385 1391 1399 1407 1413 1418 1423 1428
1435 1433 1434 1433 1432 1431 1428 1423 1416 1409 1403 1396 1388 1381 1373 1367 1362 1353 1346 1341 1337 1334 1331 1328 1328 1328 1332 1335 1339 1342 1344 1347 1353 1360 1368 1376 1383 1390 1397 1404 1411 1416 1420 1427
1434 1433 1432 1431 1431 1428 1421 1416 1410 1403 1396 1388 1380 1373 1369 1365 1359 1353 1346 1341 1337 1334 1331 1330 1329 1330 1332 1335 1337 1341 1344 1347 1352 1360 1366 1373 1382 1391 1399 1406 1411 1415 1420 1425
1437 1443 1443 1436 1432 1429 1422 1415 1410 1404 1395 1390 1387 1380 1371 1364 1359 1353 1347 1342 1340 1337 1335 1331 1330 1332 1335 1336 1339 1342 1346 1350 1353 1359 1368 1378 1386 1393 1401 1406 1412 1417 1420 1425
1448 1444 1440 1433 1429 1426 1420 1414 1406 1401 1396 1390 1383 1378 1373 1366 1356 1350 1345 1344 1342 1340 1337 1335 1335 1335 1337 1339 1343 1345 1349 1353 1357 1365 1373 1380 1386 1391 1397 1408 1413 1416 1421 1427
1446 1440 1434 1429 1424 1419 1415 1409 1403 1398 1393 1387 1381 1376 1370 1364 1358 1354 1350 1346 1343 1340 1341 1340 1340 1340 1341 1343 1346 1349 1354 1358 1362 1369 1375 1383 1389 1393 1398 1403 1411 1418 1424 1428
1441 1439 1435 1429 1421 1415 1410 1405 1399 1394 1389 1383 1378 1373 1368 1364 1360 1357 1353 1351 1348 1346 1346 1346 1345 1346 1347 1349 1352 1355 1357 1361 1366 1372 1378 1384 1388 1393 1399 1406 1413 1417 1422 1426
1439 1436 1432 1428 1422 1415 1408 1401 1396 1392 1387 1382 1377 1372 1368 1365 1362 1360 1357 1355 1353 1353 1354 1352 1351 1353 1354 1355 1359 1362 1364 1367 1372 1375 1380 1387 1392 1397 1404 1410 1415 1418 1422 1425
1437 1434 1431 1427 1422 1417 1411 1406 1401 1396 1390 1384 1380 1376 1372 1369 1366 1363 1361 1361 1360 1360 1357 1358 1360 1361 1362 1364 1364 1364 1366 1370 1375 1381 1386 1391 1397 1402 1408 1412 1416 1419 1423 1426
1437 1435 1432 1428 1424 1420 1416 1411 1404 1399 1392 1387 1385 1381 1377 1373 1370 1368 1366 1364 1363 1361 1360 1362 1363 1363 1365 1367 1369 1369 1373 1375 1379 1386 1391 1396 1402 1407 1411 1414 1418 1421 1423 1426
1435 1433 1430 1427 1424 1420 1416 1410 1404 1398 1393 1392 1390 1386 1383 1379 1377 1374 1372 1371 1369 1367 1368 1369 1369 1369 1370 1373 1374 1375 1380 1382 1385 1391 1396 1401 1406 1410 1414 1417 1420 1422 1424 1425
1435 1432 1430 1427 1423 1419 1416 1412 1409 1405 1401 1397 1394 1390 1387 1385 1383 1379 1378 1377 1376 1375 1374 1373 1374 1374 1375 1379 1379 1382 1384 1389 1391 1395 1400 1405 1409 1413 1417 1419 1421 1422 1425 1427
1433 1431 1429 1426 1423 1420 1417 1414 1410 1407 1404 1400 1397 1395 1393 1390 1388 1386 1384 1383 1381 1380 1380 1380 1380 1380 1380 1383 1386 1387 1391 1394 1397 1400 1405 1410 1412 1415 1418 1421 1421 1423 1424 1425
1433 1431 1428 1426 1423 1420 1417 1415 1412 1409 1406 1403 1401 1399 1397 1394 1392 1390 1389 1388 1387 1385 1385 1385 1384 1385 1385 1388 1388 1391 1396 1399 1402 1406 1409 1411 1414 1416 1418 1422 1423 1424 1424 1423
1433 1431 1428 1426 1423 1420 1418 1415 1412 1410 1407 1405 1403 1401 1399 1398 1396 1394 1394 1393 1391 1391 1390 1390 1390 1390 1390 1389 1391 1395 1399 1403 1406 1408 1411 1413 1416 1418 1420 1422 1424 1424 1424 1424
1432 1430 1428 1426 1423 1421 1418 1416 1414 1411 1409 1407 1405 1404 1403 1402 1401 1399 1398 1397 1396 1394 1393 1392 1392 1392 1393 1396 1397 1399 1401 1404 1405 1407 1411 1416 1419 1420 1420 1420 1422 1422 1425 1424
1432 1429 1427 1425 1423 1420 1419 1417 1415 1413 1411 1409 1407 1406 1405 1404 1404 1402 1401 1400 1399 1398 1397 1397 1397 1398 1399 1400 1401 1401 1402 1405 1409 1412 1413 1415 1417 1418 1419 1420 1421 1422 1423 1421
1431 1429 1427 1425 1422 1421 1419 1417 1415 1414 1412 1410 1408 1407 1406 1405 1404 1403 1402 1402 1401 1400 1400 1400 1400 1400 1401 1402 1403 1404 1406 1408 1411 1412 1412 1414 1417 1418 1418 1419 1419 1420 1420 1420
1430 1429 1427 1424 1422 1420 1419 1417 1416 1415 1413 1411 1410 1408 1406 1405 1404 1403 1402 1401 1401 1401 1401 1401 1401 1402 1403 1404 1405 1406 1408 1409 1410 1412 1413 1414 1415 1416 1417 1418 1418 1418 1417 1417
Wind_Speed
14 7 10 17 11 8 1 8 6 11 18 15 16 17 16 20 24 25 25 24 22 14 5 3 9 15 18 23 28 30 33 39 43 47 47 49 49 47 46 47 45 42 39 35
3 19 22 17 25 13 15 14 12 7 6 21 22 20 18 24 26 24 25 26 22 17 12 8 9 13 20 24 29 34 34 35 37 41 46 47 46 48 48 48 45 41 38 34
4 10 4 10 14 15 14 19 8 9 12 21 22 20 20 22 26 30 31 27 24 19 14 14 12 15 19 23 27 30 33 36 38 41 43 44 46 49 49 47 45 42 37 31
3 4 4 8 17 9 16 16 15 11 16 19 24 31 25 5 25 30 32 33 30 23 17 15 16 16 19 23 26 31 33 34 37 39 41 43 46 49 50 48 44 40 35 29
4 8 8 9 11 10 7 5 18 17 18 24 35 27 11 15 31 30 29 29 30 24 17 16 16 18 21 23 26 30 32 33 35 39 43 47 50 51 49 45 41 36 30 27
4 4 4 3 20 20 4 4 19 23 19 21 27 10 5 34 39 32 29 24 24 18 9 14 16 18 21 24 26 29 32 34 36 40 44 48 50 49 46 42 37 33 28 23
8 3 4 12 23 20 2 8 29 27 25 24 13 13 37 41 35 29 28 27 23 14 10 12 13 16 22 25 26 29 30 32 35 39 43 47 49 47 43 38 33 29 26 23
5 4 4 26 9 6 9 23 25 27 25 28 28 30 32 34 33 28 25 25 20 15 11 10 11 16 21 25 28 29 32 34 38 42 46 48 47 44 39 36 32 29 25 21
4 2 9 9 10 8 14 21 23 28 29 28 29 29 32 34 30 27 24 22 17 12 8 9 12 16 21 25 27 29 33 36 40 43 45 45 44 42 38 33 32 30 25 20
6 2 16 13 10 21 23 23 25 24 27 26 29 29 31 30 27 26 24 22 17 12 7 8 12 17 20 24 27 31 36 39 42 44 45 43 41 38 37 35 31 26 22 20
5 7 17 10 21 25 28 26 26 26 26 28 27 30 27 28 25 24 23 19 14 11 8 7 10 15 21 26 30 34 37 41 43 44 45 42 37 34 29 26 23 22 21 19
3 14 11 21 21 23 23 26 24 24 26 24 21 22 22 22 22 20 19 16 12 8 5 4 7 12 17 22 27 32 35 39 42 41 39 35 34 32 25 24 21 18 17 16
6 16 20 22 22 16 21 21 22 22 20 21 21 20 18 17 18 18 16 13 10 6 3 1 5 10 13 17 22 29 35 37 36 36 37 38 35 34 32 23 19 18 17 16
6 14 9 15 18 25 22 22 20 19 19 20 20 19 18 16 15 15 14 12 9 7 2 3 6 11 14 18 23 28 31 33 35 36 36 35 34 32 32 31 26 22 17 14
17 12 12 18 23 26 24 24 24 24 24 24 21 21 19 18 16 14 12 9 7 6 3 5 9 12 13 17 22 29 33 35 35 36 36 36 36 33 30 29 27 24 23 17
14 12 16 18 22 23 25 26 27 27 26 25 23 22 19 15 13 11 10 9 8 9 7 8 11 12 13 17 23 25 27 30 33 35 35 32 30 29 28 26 23 21 17 14
12 13 16 18 20 22 22 22 22 23 23 23 22 19 16 13 12 12 12 10 10 11 12 11 11 10 13 17 21 25 28 28 29 31 31 29 29 28 27 25 21 18 16 13
10 10 11 12 15 18 19 19 20 20 21 20 18 17 16 15 13 11 11 12 13 14 14 11 11 12 13 16 20 23 26 28 28 28 28 28 28 27 24 21 18 15 14 12
13 12 12 12 13 14 16 17 18 19 19 18 17 16 14 13 11 11 11 13 16 16 13 9 10 12 13 14 17 21 24 27 28 28 28 28 26 23 21 18 15 14 12 9
14 13 13 13 13 14 15 15 13 13 14 14 14 15 15 13 11 12 11 14 14 12 10 10 12 14 13 13 16 21 24 26 27 27 26 25 23 20 18 16 15 12 9 6
15 14 15 14 14 14 14 14 13 13 13 12 12 13 12 11 11 9 12 12 11 9 9 9 10 12 13 14 17 20 22 24 24 24 23 22 20 18 17 14 12 9 7 5
15 15 14 15 15 15 15 13 12 10 10 10 10 10 9 10 11 12 11 10 9 8 8 8 9 10 13 15 18 18 19 19 20 20 19 18 17 16 13 11 8 6 4 3
13 14 13 13 14 14 13 13 13 12 10 10 10 10 11 13 13 14 14 12 11 9 11 10 9 10 13 16 18 19 19 18 18 17 17 16 14 13 11 8 6 4 2 1
14 12 13 13 11 11 13 13 13 12 11 8 8 7 7 10 10 13 19 11 7 11 10 7 6 9 12 16 17 18 18 18 17 16 15 13 11 10 8 7 4 2 2 2
13 11 11 13 13 12 11 11 10 10 10 9 6 5 5 5 6 6 3 3 4 5 3 7 7 9 12 13 15 16 17 16 15 15 13 11 10 9 6 4 3 3 4 5
11 11 12 12 10 10 9 11 10 9 9 9 8 6 4 2 2 2 1 1 1 4 4 5 7 8 10 11 11 12 12 13 11 10 10 9 8 7 6 5 4 5 6 7
10 8 12 9 8 9 8 8 7 7 10 11 9 7 6 5 4 3 2 1 1 0 1 3 5 7 8 9 9 9 9 9 9 9 9 8 7 6 6 6 7 7 8 9
Wind_Direction
301 290 98 47 14 37 323 0 266 226 213 17 357 344 342 349 352 354 355 357 358 350 345 213 191 191 190 190 191 192 190 194 199 208 210 211 212 207 204 203 203 206 208 210
316 99 94 53 32 54 40 6 7 336 100 359 339 340 349 353 350 352 348 346 344 346 320 279 222 203 196 195 197 198 196 199 202 205 209 210 206 200 198 198 201 203 206 211
126 148 7 19 359 64 70 44 12 22 336 335 335 333 331 344 352 343 342 339 333 327 324 287 252 223 211 205 203 202 203 203 204 205 207 205 200 197 195 196 197 200 202 205
278 229 53 126 36 58 95 58 36 8 345 334 324 314 287 10 356 344 336 331 327 325 300 281 269 234 215 205 201 199 200 201 204 205 203 199 196 194 192 193 194 197 198 201
333 62 136 93 19 322 318 67 29 357 344 338 336 326 133 345 346 336 328 319 314 317 308 260 264 240 218 206 202 201 202 202 202 200 197 194 192 191 191 190 192 194 196 197
338 50 57 30 325 333 215 231 11 351 337 336 340 4 297 325 329 328 322 316 313 314 305 258 251 231 217 206 201 201 201 200 198 197 195 192 191 188 188 190 189 189 188 189
11 48 102 357 335 321 234 331 331 331 328 331 335 306 300 314 319 321 320 320 318 308 283 255 243 225 216 211 203 203 202 199 196 194 193 192 187 186 185 184 184 182 183 182
343 9 14 4 0 44 298 309 316 323 325 320 315 312 313 317 320 326 328 328 322 312 298 262 235 225 218 211 205 201 197 193 190 190 190 187 185 181 181 182 179 176 177 174
3 35 353 350 91 358 331 322 322 320 320 318 314 313 316 319 324 326 333 335 329 317 304 258 218 217 215 212 205 198 193 190 188 186 184 183 181 180 177 176 176 173 174 178
325 118 345 175 357 348 339 327 322 320 316 316 314 315 321 324 327 335 341 341 336 324 282 222 212 209 217 210 202 196 189 185 183 181 177 178 181 178 175 171 171 176 172 169
285 359 343 196 330 335 331 329 327 326 325 323 325 326 327 327 332 340 345 344 341 330 299 232 204 206 206 203 195 191 186 180 176 175 176 173 171 167 169 173 181 175 168 175
322 337 309 293 314 327 327 327 327 327 327 331 326 323 330 328 330 340 343 352 351 343 309 253 206 198 193 195 194 189 180 175 172 170 166 158 156 158 162 158 154 163 165 171
280 310 301 296 312 332 330 330 329 329 336 329 336 340 335 330 345 349 1 5 5 357 348 191 190 187 185 187 190 185 177 168 164 158 154 158 158 153 143 142 147 150 154 161
335 329 316 334 324 342 345 348 347 348 349 354 349 353 355 356 1 7 8 12 13 28 42 156 161 158 165 175 181 179 174 165 159 160 163 163 155 148 147 144 142 141 140 147
342 346 330 336 347 351 355 0 1 3 2 0 360 357 1 3 7 10 17 26 39 60 93 147 150 151 163 169 170 167 164 162 163 162 161 158 156 153 153 155 156 154 152 147
346 0 357 355 354 357 356 1 4 5 7 5 4 3 1 3 12 20 30 44 79 94 117 130 131 146 160 166 168 165 162 161 160 158 155 153 152 151 152 154 154 148 147 148
357 358 353 356 358 1 2 2 1 3 9 11 10 9 11 19 34 44 51 65 88 101 104 110 116 136 154 158 155 153 154 156 156 152 151 152 153 153 153 152 147 142 146 145
358 358 1 358 358 359 4 6 7 11 16 16 15 20 26 29 34 47 64 78 85 84 82 89 106 124 137 149 153 151 153 152 151 152 151 150 150 149 148 145 146 144 141 138
6 6 9 10 6 8 9 13 14 12 18 22 25 30 37 47 54 65 80 87 88 87 81 95 111 121 130 147 151 148 150 148 146 145 146 149 149 149 148 148 149 145 140 133
8 8 9 15 16 14 15 19 23 25 23 26 34 39 43 49 57 67 71 74 72 80 93 106 117 119 125 137 144 145 145 147 146 146 146 146 146 146 146 149 144 136 130 125
6 6 7 9 16 18 18 16 20 28 34 35 34 36 40 44 46 54 60 61 67 82 97 110 120 123 127 135 145 145 147 147 146 146 148 149 145 145 147 145 140 140 132 116
356 359 2 3 10 14 16 18 22 26 31 38 44 43 40 45 56 56 58 65 65 82 98 108 118 128 132 139 137 139 143 144 144 146 145 142 146 146 144 145 144 137 127 101
348 354 358 359 3 7 8 15 21 24 30 35 38 44 59 66 66 65 58 62 69 69 81 86 106 133 140 141 142 145 147 148 145 143 143 145 149 151 155 153 149 143 126 65
345 342 350 357 355 359 15 18 18 22 27 35 48 64 87 84 81 78 86 107 79 69 73 92 118 137 144 147 148 148 149 150 148 146 150 160 164 164 162 160 166 166 243 286
346 345 339 346 357 5 4 5 8 16 26 34 43 65 78 83 76 70 83 98 43 36 90 112 125 140 146 146 147 146 144 144 153 161 166 172 179 181 180 187 207 246 279 299
347 354 344 343 347 356 0 358 4 9 14 19 21 26 26 11 351 343 336 250 14 52 84 128 137 143 146 149 151 151 156 161 169 174 179 185 192 198 206 221 247 270 283 290
341 348 338 343 354 357 7 352 357 13 16 8 4 5 10 17 18 16 14 298 262 270 90 137 154 162 163 163 168 171 175 180 186 193 197 201 210 221 239 258 270 278 282 289